1st Responders/1st Detectors/Storm Spotters Weather Summary for Harrison County, KY

Forecast Maps


Reg. NEXRAD Animation


National Fire Danger: Day 1 & 2 Map

Current NWS Watch/Warnings

SPC Convective Day 1 Outlook


Day 2 Outlook

(Click images to enlarge|Page will refresh every 5 minutes)
UK Ag. Weather Center Desktop Severe Weather Service[HERE]
Harrison County, KY Hazardous Weather Outlook Webcast
(9 AM to 9 PM Mon-Fri)
[Fast]
[Dial-up]


UKAWC 1st Detectors/1st Responders Precision Weather Forecast For HARRISON County, Kentucky
(based on the NWS County Digital Forecast)

ISSUED AT 08:00 UTC ON SUNDAY SEP 15 2019
DAY SUNDAY
EDT 3HR 5A 6A 7A 8A 9A 10A 11A NOON 1P 2P 3P 4P 5P 6P 7P
MAX/MIN -- -- -- 56° -- -- -- -- -- -- -- -- -- -- 88°
TEMP 58° 58° 56° 58° 63° 70° 76° 81° 83° 85° 88° 88° 88° 85° 81°
SKY COVER 2% 3% 5% 6% 8% 11% 13% 16% 18% 20% 24% 27% 31% 26% 20%
Clouds
DEW PT 54° 54° 54° 54° 54° 56° 56° 56° 54° 54° 54° 54° 54° 54° 56°
RH 83% 86% 89% 86% 75% 61% 49% 42% 37% 33% 31% 30% 31% 35% 40%
POP 12HR -- -- -- 0% -- -- -- -- -- -- -- -- -- -- --
RAIN/SNOW (liq.equ) -- -- -- 0.00in -- -- -- -- -- 0.00in -- -- -- -- --
SNOWFALL -- -- -- 0in -- -- -- -- -- 0in -- -- -- -- --
WIND SPEED(MPH) 1 1 1 1 2 5 6 6 6 6 5 5 5 2 2
WIND Gust(MPH) 1 2 2 1 5 7 7 7 7 7 7 7 6 6 5
WIND DIR SE SE SE SE SE SE SE SE S S S S S S S
DEW Mod Dew Mod Dew Mod Dew Mod Dew Lgt Dew -- -- -- -- -- -- -- -- -- --
HeatIndex 58 58 56 58 63 70 76 80 82 84 85 86 85 84 81
WIND CHILL -- -- -- -- -- -- -- -- -- -- -- -- -- -- --
SPRAY COND
DRY COND
LIVESTOCK HEATSTRESS 58.07 58.06 56.17 58.06 62.42 67.60 71.18 73.92 74.61 75.35 76.92 76.76 76.92 75.63 73.67



DAY MONDAY TUESDAY WEDNESDAY THURSDAY FRIDAY SATURDAY
EDT 6HR 8P 9P 10P 11P MIDN 1A 2A 3A 4A 5A 6A 7A 8A 9A 10A 11A NOON 1P 2P 3P 4P 5P 8P 11P 2A 5A 8A 11A 2P 5P 8P 2A 8A 2P 8P 2A 8A 2P 8P 2A 8A 2P 8P 2A 8A 2P 8P
MAX/MIN -- -- -- -- -- -- -- -- -- -- -- -- 61° -- -- -- -- -- -- -- -- 88° -- -- -- -- 63° -- -- 85° -- -- 59° 85° -- -- 61° 88° -- -- 65° 88° -- -- 65° 88° --
TEMP 76° 74° 70° 68° 67° 65° 65° 63° 63° 63° 61° 61° 63° 68° 74° 79° 83° 86° 88° 88° 88° 85° 79° 72° 68° 65° 63° 74° 81° 83° 76° 65° 61° 81° 74° 67° 63° 85° 79° 68° 65° 85° 79° 70° 65° 85° 77°
SKY COVER 15% 16% 18% 20% 21% 21% 22% 22% 23% 24% 22% 20% 18% 17% 21% 23% 21% 17% 15% 18% 20% 23% 17% 8% 12% 10% 28% 36% 37% 29% 26% 15% 6% 10% 9% 14% 19% 35% 24% 18% 21% 27% 25% 22% 25% 34% 35%
Clouds
DEW PT 56° 58° 58° 58° 56° 56° 56° 56° 56° 56° 56° 56° 58° 59° 61° 63° 65° 65° 65° 65° 65° 65° 65° 65° 65° 65° 63° 65° 63° 61° 61° 59° 58° 61° 58° 58° 56° 61° 61° 63° 61° 63° 63° 63° 63° 63° 63°
RH 50% 57% 63% 67% 70% 73% 74% 78% 75% 77% 83% 83% 81% 72% 65% 57% 53% 49% 46% 46% 48% 51% 62% 79% 89% 99% 96% 70% 55% 49% 59% 81% 90% 49% 57% 72% 81% 45% 54% 81% 86% 48% 56% 81% 89% 47% 62%
POP 12HR 1% -- -- -- -- -- -- -- -- -- -- -- 2% -- -- -- -- -- -- -- -- -- 9% -- -- -- 1% -- -- -- 1% -- 1% -- 2% -- 1% -- 1% -- 5% -- 8% -- 6% -- 8%
RAIN/SNOW (liq.equ) 0.00in -- -- -- -- -- 0.00in -- -- -- -- -- 0.00in -- -- -- -- -- 0.00in -- -- -- 0.00in -- 0.00in -- 0.00in -- 0.00in -- 0.00in -- -- -- -- -- -- -- -- -- -- -- -- -- -- -- --
SNOWFALL 0in -- -- -- -- -- 0in -- -- -- -- -- 0in -- -- -- -- -- 0in -- -- -- 0in -- 0in -- 0in -- 0in -- 0in -- -- -- -- -- -- -- -- -- -- -- -- -- -- -- --
WIND SPEED(MPH) 2 1 1 1 1 1 1 1 1 1 1 0 0 1 1 2 5 5 6 6 6 6 5 1 1 1 1 6 6 7 6 2 1 6 5 1 1 6 2 1 1 6 1 1 1 6 1
WIND DIR S S S S S S S S S S SW SW SW W W W W NW NW NW NW NW N NE NE NE NE NE NE NE NE E E E E SE S S E S S W S S S W W
HeatIndex 76 74 70 68 67 65 65 63 63 63 61 61 63 68 74 81 85 89 91 91 90 88 82 72 68 65 63 74 83 83 76 65 61 82 74 67 63 85 79 68 65 87 81 70 65 87 77
WIND CHILL -- -- -- -- -- -- -- -- -- -- -- -- -- -- -- -- -- -- -- -- -- -- -- -- -- -- -- -- -- -- -- -- -- -- -- -- -- -- -- -- -- -- -- -- -- -- --
SPRAY COND
DRY COND
LIVESTOCK HEATSTRESS 71.27 70.41 67.72 66.33 65.65 64.08 64.11 62.49 62.42 62.47 60.79 60.79 62.56 66.58 71.07 74.22 76.74 78.37 79.33 79.33 79.65 77.94 74.78 70.48 67.44 64.97 62.91 71.49 75.51 76.21 72.12 64.35 60.88 74.77 70.41 65.74 62.56 77.07 73.89 67.04 64.52 77.51 74.11 68.83 64.62 77.36 73.20

Click on individual weather variable above in left-hand column (ie., TEMP, RH, QPF 12HR) to view state forecast maps






NWS 48 Hr. Forecast Maps,

Regional Hourly Observations For HARRISON County, Kentucky
Issued at 400 AM EDT SUN SEP 15 2019
NORTHEAST KENTUCKY
  
CITY           SKY/WX    TMP DP  RH WIND       PRES   REMARKS
LEXINGTON      FAIR      60  51  72 E5        30.22F                  
COVINGTON      FAIR      59  55  87 S5        30.20F                  
FRANKFORT      FAIR      56  54  93 CALM      30.20F                  


Current NOWCAST not available:
Nowcasts are not issued routinely during fair weather. Only when
precipitation or other significant weather is occuring in this county will these
forecasts be issued. Currently, there is no short term forecast in effect.


Fire Weather Forecast For HARRISON County, KY
Provided by the National Weather Service:

Issued at: Sun Sep 15 04:05:01 EDT 2019


                      Today        Tonight      Mon          

CLOUD COVER           Mclear       Mclear       Mclear       
PRECIP TYPE           None         None         Tstms        
CHANCE PRECIP (%)     0            0            10           
TEMP (24H TREND)      91 (+8)      62 (+5)      92           
RH % (24H TREND)      26 (-10)     82 (-4)      39           
20FTWND-VAL/AM(MPH)   Lgt/Var                   Lgt/Var      
20FTWND-RDG/PM(MPH)   Lgt/Var      Lgt/Var      Lgt/Var      
PRECIP AMOUNT         0.00         0.00         0.00         
MIXING HGT(FT-AGL/MSL)4430                      6738         
TRANSPORT WND (MPH)   S  5                      W 15         
VENT RATE (KT-FT)     16250                     91812        
DISPERSION            Poor                      Good         
DSI                   SLGT UNSTBL  SLGT UNSTBL  SLGT UNSTBL  
LAL                   1            1            2            
HAINES INDEX          6            5            3            
ADI EARLY             18 GEN POOR  2 VERY POOR  59 GEN GOOD  
ADI LATE              17 GEN POOR  2 VERY POOR  67 GOOD      
MAX LVORI EARLY       5            3            4            
MAX LVORI LATE        2            4            2            

REMARKS...ADI IS ATMOSPHERIC DISPERSION INDEX BY LAVDAS.        
LVORI IS LOW VISIBILITY OCCURRENCE RISK INDEX.

.TUESDAY...Mostly clear. Lows in the mid 60s. Highs in the upper
80s. North winds around 5 mph. 
.WEDNESDAY...Mostly clear. Lows around 60. Highs in the upper
80s. Northeast winds around 5 mph. 
.THURSDAY...Mostly clear. Lows in the lower 60s. Highs in the
upper 80s. South winds up to 5 mph. 
.FRIDAY...Partly cloudy. Lows in the mid 60s. Highs in the upper
80s. Southwest winds up to 5 mph. 
.SATURDAY...Partly cloudy. Lows in the mid 60s. Highs in the
upper 80s. Southwest winds up to 5 mph. 

SPC's Fire Weather Web Tool (Excellent!), SPC's Fire Weather Outlooks, NWS Fire Weather WEB, Fire Danger Class Map,
Keetch-Byram Drought Index, ROMAN Web, Haines Index ,
WFAS's 10-hr Dead Fuel Moist., WFAS's 100-hr Dead Fuel Moist., Probablity of Ignition, Visual blackness Map, Palmer Drought Index, HPC's Rainfall Forecast Maps


Hazardous Weather Outlook For HARRISON County, Kentucky
311 AM EDT Sun Sep 15 2019 /211 AM CDT Sun Sep 15 2019/

 DAY ONE  Today and Tonight.

No hazardous weather is expected at this time.

 DAYS TWO THROUGH SEVEN  Monday through Saturday.

Isolated storms are possible across Central Kentucky Monday 
afternoon. One or two storms may have some gusty winds, quick heavy 
burst of rain and cloud to ground lightning strikes. 

 SPOTTER INFORMATION STATEMENT  

Spotter activation is not anticipated.

Latest HARRISON County, Kentucky Watches, Warnings and Advisories.
Additional Drought Info.: UKAWC Drought Page, Kentucky Drought Watch


7-Day Forecast For HARRISON County, KY

TODAY
Mostly sunny. Highs in the upper 80s. South winds up to 5 mph.

TONIGHT
Mostly clear. Lows in the lower 60s. South winds up to 5 mph.

MONDAY
Mostly sunny. Highs in the upper 80s. West winds up to 5 mph.

MONDAY NIGHT
Mostly clear. Lows in the mid 60s. North winds up to 5 mph.

TUESDAY
Partly cloudy. Highs in the mid 80s. Northeast winds up to 10 mph.

TUESDAY NIGHT
Mostly clear. Lows around 60.

WEDNESDAY
Mostly sunny. Highs in the upper 80s.

WEDNESDAY NIGHT
Mostly clear. Lows in the lower 60s.

THURSDAY
Mostly sunny. Highs in the upper 80s.

THURSDAY NIGHT
Partly cloudy. Lows in the mid 60s.

FRIDAY
Partly cloudy. Highs in the upper 80s.

FRIDAY NIGHT
Partly cloudy. Lows in the mid 60s.

SATURDAY
Partly cloudy. Highs in the upper 80s.

Ag Weather Center, Department of Biosystems & Agricultural Engineering, University of Kentucky